Home > Weather > Piešťany > Past weeks

Flag for Slovakia Past Weather in Piešťany, Slovakia — Yesterday and Last 2 Weeks

Now
82 °F

Passing clouds.


Feels Like: 84 °F
Forecast: 68 / 81 °F
Wind: 3 mph from North

Location: Piestany

Current Time: Jul 23, 2016 at 1:10:08 PM

Latest Report: Jul 23, 2016 at 12:30 PM


Visibility: N/A

Pressure: 30.01 "Hg

Humidity: 55%

Dew Point: 64 °F

Location of PiešťanyLocation

Past Weather in Piešťany — Graph

°F

Piešťany Temperature Yesterday

Maximum temperature yesterday: 84 °F (at 2:30 PM)
Minimum temperature yesterday: 64 °F (at 2:00 AM)
Average temperature yesterday: 73 °F

High & Low Weather Summary for the Past Weeks

 TemperatureHumidityPressure
High93 °F (Jul 11, 4:30 PM)100% (Jul 12, 8:00 PM)30.15 "Hg (Jul 12, 8:00 PM)
Low50 °F (Jul 15, 3:30 AM)30% (Jul 9, 4:00 PM)29.68 "Hg (Jul 14, 8:30 AM)
Average69 °F69%30.01 "Hg
* Reported Jul 8 12:00 PM — Jul 23 12:00 PM, Piešťany, Weather by CustomWeather, © 2016

Note: Actual official high and low records may vary slightly from our data, if they occured in-between our weather recording intervals... More about our weather records

Advertising

Piešťany Weather History for the Previous 24 Hours

Scroll right to see more
 ConditionsComfort  
Time TempWeatherWind HumidityBarometerVisibility
12:00 PM
Sat, Jul 23
81 °FPassing clouds.3 mph54%30.04 "HgN/A
11:30 AM81 °FPassing clouds.3 mph54%30.04 "HgN/A
11:00 AM79 °FPassing clouds.3 mph58%30.04 "HgN/A
10:30 AM79 °FPassing clouds.3 mph54%30.04 "HgN/A
10:00 AM75 °FSunny.6 mph61%30.04 "Hg10 mi
9:30 AM73 °FSunny.3 mph65%30.04 "Hg10 mi
9:00 AM72 °FPassing clouds.6 mph69%30.04 "HgN/A
8:30 AM72 °FSunny.6 mph69%30.04 "Hg10 mi
8:00 AM68 °FPassing clouds.5 mph73%30.01 "HgN/A
7:30 AM66 °FPassing clouds.6 mph78%30.01 "HgN/A
7:00 AM66 °FSunny.5 mph78%30.01 "Hg10 mi
6:30 AM64 °FPassing clouds.3 mph83%30.01 "HgN/A
6:00 AM64 °FPassing clouds.5 mph83%30.01 "HgN/A
5:30 AM64 °FMostly cloudy.3 mph83%30.01 "HgN/A
5:00 AM64 °FOvercast.6 mph83%30.01 "HgN/A
4:30 AM64 °FMild.7 mph83%29.98 "HgN/A
4:00 AM64 °FMild.7 mph83%29.98 "HgN/A
3:30 AM64 °FPassing clouds.8 mph88%29.98 "HgN/A
3:00 AM64 °FOvercast.3 mph88%30.01 "HgN/A
2:30 AM66 °FPassing clouds.3 mph83%30.01 "HgN/A
2:00 AM64 °FMild.5 mph88%30.01 "HgN/A
1:30 AM66 °FMild.5 mph88%30.01 "HgN/A
1:00 AM66 °FMild.3 mph88%30.01 "HgN/A
12:30 AM64 °FMild.5 mph94%30.01 "HgN/A
12:00 AM68 °FMild.2 mph83%30.01 "HgN/A
11:30 PM
Fri, Jul 22
68 °FPassing clouds.2 mph83%30.01 "HgN/A
11:00 PM68 °FPassing clouds.No wind83%30.01 "HgN/A
10:30 PM70 °FPassing clouds.1 mph83%29.98 "HgN/A
10:00 PM70 °FClear.3 mph83%29.98 "Hg10 mi
9:30 PM73 °FSunny.3 mph74%29.98 "Hg10 mi
9:00 PM75 °FSunny.1 mph74%29.98 "Hg10 mi
8:30 PM75 °FPassing clouds.5 mph78%29.98 "HgN/A
8:00 PM79 °FPassing clouds.2 mph65%29.98 "HgN/A
7:30 PM81 °FPassing clouds.1 mph58%29.95 "HgN/A
7:00 PM81 °FPassing clouds.3 mph54%29.95 "HgN/A
6:30 PM82 °FPassing clouds.3 mph51%29.95 "HgN/A
6:00 PM84 °FPassing clouds.3 mph48%29.95 "HgN/A
5:30 PM84 °FPassing clouds.6 mph48%29.95 "HgN/A
5:00 PM82 °FPassing clouds.7 mph51%29.95 "HgN/A
4:30 PM84 °FPassing clouds.6 mph48%29.95 "HgN/A
4:00 PM84 °FPassing clouds.8 mph48%29.95 "HgN/A
3:30 PM82 °FPassing clouds.6 mph51%29.98 "HgN/A
3:00 PM84 °FPassing clouds.2 mph45%29.98 "HgN/A
2:30 PM84 °FPassing clouds.1 mph45%29.98 "HgN/A
2:00 PM82 °FPassing clouds.2 mph48%29.98 "HgN/A
1:30 PM82 °FPassing clouds.3 mph48%29.98 "HgN/A
1:00 PM81 °FPassing clouds.2 mph51%29.98 "HgN/A
Weather by CustomWeather, © 2016

See weather overviewHow to use our weather pages